CAPE
1969 2537 2144 1613 2100 1912 2454 3015 3156 2775 3132 3181 3103 3044 2607 2380 2825 2616 2641 3019 3616 3495 3994 4607 4571 4482 4704 3998 4580 4691 4214 4304 4218 4596 4342 4296 4101 2837 2697 2466 3546 2722
2190 2884 2637 1758 2748 2649 2604 2606 2856 2611 3027 3002 3011 2705 3389 2730 2493 2684 2364 2829 3718 3774 4013 4271 4094 4020 4130 3946 4561 4318 4671 4576 3976 3896 4042 3571 3582 3722 2696 2370 2588 3345
2224 2707 2604 2349 2604 2965 2581 2582 2530 2563 2601 2861 2691 2916 2828 3177 2293 2559 2251 2667 3469 3557 3862 3967 3742 3588 3901 3787 3860 4397 3956 4466 3562 3110 3020 3375 4222 4285 3817 2949 2478 2434
2320 2251 2422 2432 2397 2697 2420 2334 2653 2629 2527 2659 2547 2805 2962 2611 2378 2283 2861 3948 2811 3068 3610 3792 3469 3402 3664 3191 3802 3926 4021 4249 4218 3960 3360 4381 4532 4411 3944 2745 2635 2237
2229 2170 2112 2045 1966 1776 1883 1797 2392 2112 2188 2381 2422 2159 2302 3082 2250 2399 3059 3213 2695 3395 3534 3827 3292 3038 3409 3436 4019 3794 3410 3655 4157 4323 4448 4356 4331 4444 4028 2836 2400 2422
2066 2070 1807 1768 1682 1555 1724 1724 2160 1702 2131 1956 2246 2519 2026 2480 2458 2262 2775 2821 2863 3219 3207 3470 3293 3118 3220 3683 3900 3487 3655 3623 3767 3831 3841 3861 3788 3807 3668 3526 2894 2875
1911 1942 1741 1676 1694 1948 1731 1744 1430 1767 1825 2186 2014 2068 1901 1854 2070 2158 2419 2445 2414 2593 2911 2702 2820 2789 3164 3581 3597 3132 3507 3470 3638 3497 3798 3851 3848 3666 3644 2817 2768 3124
1933 1951 1676 1620 1823 1332 1376 1486 1394 1450 1732 1991 1644 1857 1805 1705 2389 2232 2283 2368 2218 2193 2273 2665 2769 2812 3066 3137 3502 3435 4199 3755 3616 3523 3541 3594 3831 3853 3616 3673 2481 2681
1964 1791 1628 1551 1426 1377 1413 1387 1278 1312 1496 1743 1598 1811 1657 1874 2024 2080 2310 2171 2108 2025 1901 2627 2813 2907 2968 3008 3279 3576 3752 3754 3689 3402 3629 4054 4125 3949 3829 3554 3307 3236
1816 1781 1601 1509 1426 1353 1226 1110 1063 1107 1780 1596 1440 1236 1633 1460 1948 1941 2201 2049 2044 2440 2490 2807 2913 3079 2971 2757 3192 3502 3502 3410 3269 3450 3629 3920 4028 3898 3589 3043 2954 2892
1446 1554 1562 1531 1520 1426 1323 1193 1105 1135 1743 1331 1230 1128 1232 1680 1819 1812 2037 2275 2032 2887 2550 2515 2438 2778 2977 2902 3255 3384 3415 3393 3521 3123 3348 3397 3234 3035 3809 2898 2679 2573
1114 1207 1421 1434 1433 1364 1158 1025 988 1041 1168 1510 1283 1224 1238 1192 1451 1794 2267 2648 2112 2285 2547 2820 2700 2787 3121 3097 2778 2948 3018 3239 3526 3295 2900 2737 2896 3094 3152 3164 2706 2586
1232 695 885 1234 1219 1108 972 833 762 662 728 1255 1281 1238 1200 1085 963 1710 2424 2212 2441 2400 2354 2691 2958 2989 3054 2968 2746 2689 2616 2969 3088 3098 2947 2750 2868 2880 2815 2614 2436 2212
1455 1424 782 1167 1282 891 777 567 487 547 472 592 1267 1242 1158 1080 1471 1559 1683 2229 2348 2482 2346 2547 2823 2808 2781 3097 3054 2726 2649 2804 2383 2332 2406 2614 2399 2248 2154 1938 1607 1867
1286 1746 1454 1956 2521 2419 3141 1648 1104 1227 1391 1160 1102 1218 1186 1076 1151 1101 1452 1517 2328 2580 2641 2446 2658 2858 2602 2909 3107 2911 2551 2454 2365 2708 2401 1870 1924 2327 2002 1667 1834 1359
1533 1685 1919 1860 1926 2094 2129 2771 2539 2379 2339 2279 1156 1084 1082 966 900 925 952 851 830 1225 1580 1850 1962 1916 2315 2878 2968 2617 2419 2214 1893 2259 1786 2239 2426 2080 2000 1921 1749 1580
1290 1467 1794 1692 1937 1663 1780 1994 2165 2551 2696 2226 1704 1494 1247 928 914 796 747 713 674 622 701 808 1223 1299 1338 1248 1562 1926 2692 1991 2123 2784 2147 1746 1678 1891 2100 2173 1990 1708
2044 1868 1767 1805 1825 1492 1482 1658 1639 1765 1774 1806 1737 1403 1192 1115 958 770 676 778 1042 680 740 891 859 1086 1263 1180 881 848 1557 2012 1971 1986 2284 2124 2190 2077 1971 1975 1692 1349
2418 2176 2040 2298 2346 1987 1579 1655 1755 1869 1807 1813 2002 1718 1433 1091 1034 818 590 733 1062 614 674 1026 768 988 1126 1052 766 532 793 1495 1639 1630 1613 1731 1705 1504 1438 1407 1339 1262
2024 2232 2260 2295 2404 2392 2066 1747 1967 2266 2071 2179 2043 1877 1818 1484 1289 918 712 1186 1754 1121 922 803 804 780 842 842 809 632 543 755 1143 1349 1290 904 624 801 2324 2877 3266 2951
1791 1961 2059 2113 2079 2132 2168 1988 2034 2118 2048 1985 1908 1785 1737 1722 1430 1071 1257 1685 1475 1554 966 1052 1047 826 833 667 591 536 502 579 1009 1840 1335 1286 1159 1662 2773 2973 3280 3183
1278 1344 1436 1491 1415 1391 1466 1643 1774 2090 1967 1838 1790 1716 1618 1565 1602 1421 1184 1376 1296 1211 894 990 1062 1076 1018 899 667 508 792 1705 1799 1912 2111 1760 1830 1991 2403 2646 2726 2468
902 897 926 1043 1174 1201 1128 1162 1386 1557 1733 1642 1442 1515 1543 1605 1654 1635 1576 1391 1199 1119 1100 940 950 982 919 791 755 765 989 1531 2246 2799 2121 1742 1888 2115 1972 1996 1674 1597
562 740 734 897 965 1046 987 964 968 1060 1205 1210 1195 1242 1173 1104 1163 1354 1530 1559 1382 1199 1073 894 975 995 931 876 826 884 971 1270 1912 2581 2471 2132 1888 1878 1492 1691 2014 1278
600 669 696 716 656 541 685 782 836 910 910 916 944 913 849 799 788 813 898 886 877 945 1081 974 957 988 1008 1035 977 866 1013 1284 2130 2345 2189 1958 1878 1639 1473 1307 1186 1083
448 532 585 592 598 576 573 543 656 734 766 717 690 625 506 492 496 509 555 583 446 484 602 732 794 794 879 943 984 1010 975 1500 1676 1716 1648 1840 1977 1800 1520 1379 1288 1213
Wind_Speed
2 3 4 3 4 4 4 3 3 4 3 3 3 3 4 3 3 2 3 2 2 3 2 2 2 2 2 3 4 4 4 4 4 4 3 4 4 4 4 3 4 6
2 4 5 4 4 4 4 3 4 4 3 2 3 3 2 2 1 3 2 2 2 4 3 3 3 3 4 5 5 5 5 4 4 3 4 2 1 1 4 4 3 3
3 4 4 4 3 3 4 3 3 3 4 3 3 3 3 4 3 2 2 2 3 4 4 4 4 5 5 6 6 6 6 6 5 3 3 2 1 0 1 4 3 2
4 3 4 5 4 4 4 3 3 4 4 4 4 3 3 4 5 4 3 3 4 4 5 5 5 6 7 7 6 6 6 7 6 6 5 2 0 1 1 4 4 2
3 3 4 4 5 4 4 4 3 3 3 4 4 3 3 4 7 5 5 5 4 5 6 6 7 7 7 7 6 5 5 7 6 7 6 5 3 3 3 5 4 3
5 4 4 4 4 5 3 4 5 4 4 5 4 5 5 6 6 6 5 6 6 6 7 7 8 8 8 8 8 6 6 6 6 7 6 5 3 3 3 4 6 4
5 5 3 4 4 6 5 6 6 6 5 7 6 6 7 7 5 5 6 7 6 6 7 8 8 8 9 10 9 7 6 7 6 6 5 4 4 2 2 5 6 6
6 7 5 5 5 6 6 6 6 7 6 8 8 7 8 7 7 6 7 7 7 8 7 9 9 10 10 10 10 9 8 8 8 6 5 4 4 3 3 4 5 4
9 8 8 8 6 8 6 6 5 6 8 10 10 10 8 8 8 8 8 7 6 8 8 10 11 11 11 11 11 11 10 9 9 9 8 6 5 5 4 5 6 7
10 11 10 9 8 9 9 8 7 7 9 10 9 10 10 10 10 8 10 9 8 8 11 12 12 11 10 12 13 13 11 10 10 11 11 10 9 8 7 7 7 7
11 11 11 10 10 11 9 10 9 11 12 11 11 10 11 12 12 11 12 11 9 11 12 13 13 11 11 10 11 12 12 11 11 13 12 12 10 9 10 10 9 9
11 11 11 11 11 11 10 11 10 11 13 13 12 12 13 12 14 12 13 13 12 12 13 14 14 14 13 11 11 12 12 12 12 12 12 11 11 11 11 12 12 12
12 11 11 11 10 10 11 11 11 11 13 13 14 13 14 14 14 15 16 16 15 14 14 14 16 16 15 14 12 13 14 13 13 12 12 11 12 12 13 13 13 13
16 15 13 14 13 10 10 11 12 13 12 15 15 15 14 16 16 16 17 17 16 15 15 16 16 16 17 16 15 14 15 16 15 15 14 15 14 14 13 13 14 15
17 18 18 18 18 18 17 13 14 16 16 15 16 16 18 18 17 18 18 16 18 17 18 18 18 17 18 18 17 17 17 16 16 17 17 18 16 16 15 15 15 14
17 20 21 20 20 19 18 19 17 19 21 19 16 16 17 19 21 25 26 27 27 26 24 16 15 18 18 17 19 19 18 17 18 21 20 21 20 19 17 17 16 15
21 24 23 22 23 21 21 21 20 20 23 22 23 24 23 24 24 24 24 25 25 25 21 18 19 19 23 27 25 16 17 19 19 23 23 24 22 21 19 18 18 17
23 23 20 21 23 23 23 24 23 23 25 25 25 25 22 22 25 25 24 24 25 25 23 21 20 24 25 25 24 23 18 18 22 22 23 23 23 22 21 20 18 18
20 19 17 17 18 20 21 23 24 25 26 26 28 26 26 26 25 28 28 26 26 26 25 26 26 28 27 25 26 26 22 21 22 24 23 23 24 23 22 21 21 22
17 17 17 17 18 19 20 21 23 25 26 26 27 27 27 28 31 32 29 27 26 25 25 27 27 29 28 27 28 29 27 26 25 26 27 27 27 27 30 30 28 29
19 20 20 20 21 21 22 23 26 27 25 24 25 26 28 30 31 32 31 29 28 29 30 30 29 30 28 27 27 28 27 28 30 33 35 38 37 33 32 33 32 31
21 24 27 28 25 23 23 25 28 22 22 23 23 25 27 29 30 30 29 28 28 27 30 32 31 34 32 30 29 29 27 29 33 35 37 41 39 36 35 35 35 36
24 24 27 24 25 26 26 27 28 24 21 22 25 25 27 27 26 27 27 27 29 28 32 31 32 34 34 32 32 31 30 33 35 38 40 41 40 37 36 35 36 38
27 29 26 23 26 26 25 26 25 23 23 23 25 26 28 27 24 24 28 30 31 33 32 31 30 32 34 34 33 31 29 31 33 36 37 38 38 37 37 36 38 44
31 32 29 28 29 29 28 28 26 25 24 25 26 27 28 29 29 28 31 33 34 32 34 34 32 32 35 36 36 33 29 28 31 36 37 36 38 38 38 39 39 42
35 36 35 34 33 33 32 30 29 30 28 26 27 28 30 32 31 30 32 33 35 34 33 34 35 34 35 38 40 39 35 33 35 37 38 37 37 37 39 39 40 40
Wind_Direction
221 208 221 254 274 288 306 297 289 296 313 327 331 348 353 31 37 356 358 359 337 357 22 341 336 4 345 343 359 348 356 16 9 27 53 50 39 9 347 355 347 6
231 217 218 235 245 259 280 299 295 304 319 318 338 338 323 343 16 302 333 337 342 343 343 334 333 341 347 350 344 337 349 351 13 358 2 357 5 40 1 353 354 6
233 226 242 250 246 264 288 295 301 308 315 321 315 312 311 313 326 291 316 321 329 328 336 330 322 329 319 332 329 326 341 346 5 352 341 11 357 330 345 332 315 47
224 236 238 251 245 242 262 271 263 281 288 295 306 304 311 292 309 309 297 317 311 304 330 317 323 327 314 327 328 334 335 343 347 338 336 321 333 321 314 326 322 23
229 235 231 246 242 253 241 277 279 279 271 278 293 286 289 268 299 307 293 304 315 298 320 317 313 323 314 318 320 328 326 338 332 330 335 355 12 350 353 338 333 351
219 218 220 247 242 272 266 264 268 283 259 281 289 272 276 276 280 285 286 303 305 298 316 311 308 313 313 312 315 322 310 324 324 324 333 347 358 4 12 340 335 339
242 235 234 233 234 263 276 255 260 264 267 275 271 264 271 269 272 266 281 297 301 291 299 305 303 301 307 303 306 311 301 308 305 316 321 333 342 10 342 329 330 339
266 250 251 238 232 253 252 248 240 245 268 266 279 269 271 272 272 269 265 288 296 305 301 311 308 304 308 302 304 303 298 303 299 302 307 321 329 337 346 343 328 335
263 257 258 251 248 244 269 262 253 244 261 266 270 267 271 276 275 274 274 279 281 280 299 298 307 310 304 304 306 304 304 304 307 308 307 311 322 337 338 324 318 324
259 256 268 260 257 248 254 263 266 263 265 269 272 264 277 279 284 276 270 281 286 276 279 282 291 296 299 297 307 304 303 309 302 308 311 315 322 323 326 322 323 318
262 257 267 264 259 257 251 257 256 261 266 273 270 269 273 268 271 271 264 272 280 274 276 280 284 284 286 283 289 299 301 302 296 298 305 313 315 314 310 316 317 312
260 254 260 268 268 264 267 265 265 257 266 273 274 270 272 273 269 271 268 269 271 270 273 278 279 280 281 279 278 285 293 293 293 297 304 306 306 309 313 311 308 307
255 261 257 262 274 268 269 269 272 267 265 271 271 267 267 272 274 272 270 273 269 263 267 271 275 278 281 283 280 275 282 289 289 293 299 301 303 309 311 309 310 312
243 241 242 239 236 244 255 260 257 265 262 266 275 271 268 268 278 276 270 273 274 273 269 270 276 278 280 281 282 283 280 281 287 286 287 287 286 289 290 293 299 303
247 245 244 239 237 233 230 235 252 247 246 257 268 263 256 253 260 268 268 268 267 273 277 275 280 285 285 284 286 286 287 283 286 284 279 281 280 280 281 282 284 289
242 245 241 244 245 241 239 236 241 252 250 242 246 255 257 251 243 245 248 250 244 234 226 237 264 275 276 300 297 288 283 280 278 285 289 280 280 279 278 279 281 285
237 238 241 244 244 244 245 243 242 247 255 254 251 252 256 260 262 254 250 249 253 256 256 247 240 235 233 247 252 260 279 281 280 279 276 278 278 278 277 279 279 280
236 240 240 242 240 240 244 245 245 250 255 259 259 258 260 265 272 271 262 256 250 247 245 253 261 247 235 242 249 254 254 272 283 278 277 278 281 282 282 278 281 282
230 243 246 247 248 249 252 252 251 253 255 258 261 262 264 261 261 263 263 259 256 256 255 254 255 246 239 242 249 249 258 263 263 274 277 280 281 281 280 276 270 271
204 236 254 257 255 254 253 255 255 256 260 260 260 260 261 260 258 258 256 256 258 260 257 255 257 247 243 245 248 251 255 265 267 261 268 274 275 271 270 270 270 271
206 224 239 245 249 252 253 251 250 249 256 261 263 262 259 255 255 257 256 254 253 259 263 258 255 242 243 245 251 252 250 262 268 266 266 267 269 270 269 269 268 269
230 234 236 233 235 246 250 253 255 242 249 257 263 265 261 258 257 258 259 258 256 256 262 260 255 244 243 248 251 253 252 262 266 269 269 272 271 270 269 269 269 271
257 249 249 253 249 246 248 250 260 268 257 257 260 259 261 264 267 265 261 260 258 254 258 255 251 243 242 247 251 250 259 263 266 271 274 275 275 273 272 271 270 270
267 267 267 264 258 258 256 253 253 257 257 257 259 261 264 265 269 267 265 258 255 256 261 261 259 252 248 248 248 250 257 262 264 270 273 274 276 275 274 272 273 274
267 269 272 271 267 263 263 261 257 258 259 259 260 263 267 267 266 263 264 266 269 268 267 266 262 257 253 253 252 249 256 262 262 265 270 274 278 278 276 272 268 269
267 269 271 269 267 269 270 269 268 264 259 257 258 261 265 269 269 266 265 265 264 263 261 259 257 253 250 248 252 251 250 261 264 268 269 271 275 279 278 274 273 270